Torna al catalogo

CZ-4C DEB

AttivoPO
NORAD 43409·DEBRIS·🇨🇳 China

Lanciato Sep 23, 2013 da Taiyuan Satellite Launch Center

Loading…

Prossimi Passaggi (prossime 24 ore)

TLE

AggiornatoSource: Space-Track

Epoca: Sep 14, 2026, 05:28 UTC

1 43409U 13052D   26257.22803483  .00000156  00000-0  15666-3 0  9992
2 43409  98.7811 358.9542 0236015  96.6692 266.1381 13.78127320643528

Traccia CZ-4C DEB in tempo reale con AllMySat

Download on the App Store